Weather Roundup
Issued by NWS Springfield, MO

Home | Current Version | Previous Version | Text Only | Print | Product List | Glossary On
Versions: 1 2 3 4 5 6 7 8 9 10 11 12 13 14 15 16 17 18 19 20 21 22 23 24 25 26 27 28 29 30 31 32 33 34 35 36 37 38 39 40 41 42 43 44 45 46 47 48 49 50
000
NZUS99 KSGF 211807
HRRSGF

HOURLY WEATHER
NATIONAL WEATHER SERVICE SPRINGFIELD MO
100 PM CDT SAT OCT 21 2017

......SGF CWA......

CITY           SKY/WX    TMP DP  RH WIND       PRES   REMARKS
SPRINGFIELD    MOSUNNY   77  64  64 S18G29    29.94F
6HR MIN TEMP:  62; 6HR MAX TEMP:  77;

JOPLIN         MOSUNNY   78  65  63 S21G29    29.89F
6HR MIN TEMP:  65; 6HR MAX TEMP:  79;

WEST PLAINS    PTSUNNY   74  64  71 S15G21    30.05F
6HR MIN TEMP:  61; 6HR MAX TEMP:  74; 6HR PCP: TRACE;

ROLLA          MOSUNNY   76  63  64 S21G37    30.00F
6HR MIN TEMP:  65; 6HR MAX TEMP:  76;

OSAGE BEACH    PTSUNNY   76  63  64 S20G26    29.96F
BRANSON        PTSUNNY   77  63  61 S12       30.00F

......SURROUNDING SGF CWA......

CITY           SKY/WX    TMP DP  RH WIND       PRES   REMARKS
CHANUTE        CLOUDY    73  64  73 S21G32    29.88R
PARSONS        CLOUDY    75  64  68 S14G28    29.87S
COFFEYVILLE    CLOUDY    76  65  68 S21G30    29.86F
EMPORIA        MOSUNNY   75  64  68 S26G39    29.78S
GROVE OK       MOSUNNY   79  64  61 S18G28    29.91F
ROGERS AR      MOSUNNY   76  64  66 S24       29.96F
SILOAM SPRINGS PTSUNNY   77  64  64 S21G26    29.95F
HARRISON AR    CLOUDY    75  63  66 S15G22    30.01F

......KANSAS AND MISSOURI......

CITY           SKY/WX    TMP DP  RH WIND       PRES   REMARKS
KANSAS CTY INT CLOUDY    72  63  73 S26G35    29.80S
DOWNTOWN KC    MOSUNNY   76  65  68 S17G28    29.82F
COLUMBIA       MOSUNNY   78  62  57 S18G31    29.94F
SEDALIA        SUNNY     77  63  61 S20G38    29.91F
ST JOSEPH      LGT RAIN  72  64  76 S15G24    29.79R
ST LOUIS       CLOUDY    71  64  78 SE12      30.03F
SPIRIT OF STL  PTSUNNY   73  64  73 SE7       30.02F
KIRKSVILLE     MOSUNNY   78  64  61 SW21G30   29.88F
WICHITA        CLOUDY    74  66  76 S26G32    29.78R
TOPEKA         CLOUDY    73  65  75 S22G32    29.80R
OLATHE         MOSUNNY   73  64  73 S24G32    29.83F

......TENNESSEE......

CITY           SKY/WX    TMP DP  RH WIND       PRES   REMARKS
MEMPHIS        MOSUNNY   79  61  53 SE15      30.10F
NASHVILLE      PTSUNNY   76  55  48 S14       30.21F

......ARKANSAS.......

CITY           SKY/WX    TMP DP  RH WIND       PRES   REMARKS
FAYETTEVILLE   MOSUNNY   77  66  68 S18G26    29.96F
FT SMITH       PTSUNNY   80  66  62 S10       29.95F
LITTLE ROCK    CLOUDY    78  70  76 S10       30.03F

......OKLAHOMA.......

CITY           SKY/WX    TMP DP  RH WIND       PRES   REMARKS
TULSA          PTSUNNY   77  66  68 S23G33    29.84F
PONCA CITY     PTSUNNY   78  64  61 S18G36    29.79F
MCALESTER      PTSUNNY   79  66  64 S12G24    29.92F
OKLAHOMA CITY  PTSUNNY   76  64  66 S21G31    29.85F

......IOWA............

CITY           SKY/WX    TMP DP  RH WIND       PRES   REMARKS
DES MOINES     CLOUDY    69  59  70 S22G31    29.79S
QUAD CITIES    SUNNY     76  58  53 S21G29    29.90F

......ILLINOIS........

CITY           SKY/WX    TMP DP  RH WIND       PRES   REMARKS
QUINCY         SUNNY     78  60  53 S24G33    29.93F
CHICAGO        MOSUNNY   74  55  51 S18G25    30.03F




USA.gov is the U.S. government's official web portal to all federal, state and local government web resources and services.